Location: Home
(42.5358°N, 72.7383°W)
Time: 14:59:19
(UTC-05:00)

Explorer 11/Cluster Stage 4 - Pass Details

Date: 17 December 2025
Orbit: 463 x 1179 km, 28.8° (Epoch: 21 January)

Event Time Altitude Azimuth Distance (km) Brightness Sun altitude
Rises 18:09:22 0° 243° (WSW) 4,054 11.7 -19.5°
Reaches altitude 10° 18:12:43 10° 232° (SW) 3,086 10.6 -20.1°
Maximum altitude 18:18:59 27° 178° (S) 2,008 8.7 -21.2°
Enters shadow 18:23:11 16° 134° (SE) 2,470 8.8 -21.9°
